Regional Weather Roundup
Issued by NWS

Home | Current Version | Previous Version | Graphics & Text | Print | Product List | Glossary On
Versions: 1 2 3 4 5 6 7 8 9 10 11 12 13 14 15 16 17 18 19 20 21 22 23 24 25 26 27 28 29 30 31 32 33 34 35 36 37 38 39 40 41 42 43 44 45 46 47 48 49 50
000
ASUS45 KCYS 192310
RWRWY

WYOMING REGIONAL WEATHER ROUNDUP
NATIONAL WEATHER SERVICE CHEYENNE WY
400 PM MST FRI DEC 19 2014

NOTE:  "FAIR" INDICATES FEW OR NO CLOUDS BELOW 12,000 FEET
WITH NO SIGNIFICANT WEATHER AND/OR OBSTRUCTIONS TO VISIBILITY.

WYZ001-200000-
YELLOWSTONE NATIONAL PARK

CITY           SKY/WX    TMP DP  RH WIND       PRES   REMARKS
LK YELLOWSTONE   N/A     26  21  81 W6        30.02F WCI  19
W YELLOWSTONE  NOT AVBL

$$
WYZ002>013-054>058-071-098>099-200000-
NORTHERN WYOMING

CITY           SKY/WX    TMP DP  RH WIND       PRES   REMARKS
JACKSON        LGT SNOW  30  28  93 SW6       30.05S WCI  24
CODY           FAIR      43  25  49 W12G17    29.89S
GREYBULL       FAIR      25  17  72 NW5       29.96S WCI  19
WORLAND        FAIR      17  12  80 CALM      29.96R
SHERIDAN       FAIR      38  23  55 SE3       29.88S
BUFFALO        FAIR      36  18  48 S7        29.90F WCI  30
GILLETTE       MOCLDY    33  22  63 SW9       29.90S WCI  25
HULETT           N/A    N/A N/A N/A MISG        N/A
NEWCASTLE      FAIR      32  19  59 SE7       29.95S WCI  26

$$
WYZ014>020-022>026-101>103-200000-
CENTRAL WYOMING

CITY           SKY/WX    TMP DP  RH WIND       PRES   REMARKS
BIG PINEY      MOCLDY    34  19  54 E7        30.07S WCI  28
PINEDALE       MOCLDY    32  21  64 CALM      30.07F
DUBOIS         NOT AVBL
LANDER         FAIR      12   7  80 CALM      29.98S
RIVERTON       FAIR      14  11  87 S5        29.98F WCI   6
CASPER         FAIR      32  23  69 SW15      29.98R WCI  22
DOUGLAS        FAIR      35  21  56 N3        29.96F

$$
WYZ021-027>030-104>119-200000-
SOUTHERN WYOMING

CITY           SKY/WX    TMP DP  RH WIND       PRES   REMARKS
EVANSTON       CLOUDY    37  21  52 SW14      30.08S WCI  28
KEMMERER       FAIR      32  21  64 SW6       30.09R WCI  26
FORT BRIDGER   MOCLDY    37  22  56 W8        30.11S WCI  30
ROCK SPRINGS   CLOUDY    33  21  61 SW8       30.09F WCI  26
DIXON          CLOUDY    25  21  85 CALM      30.18S
RAWLINS        CLOUDY    27  19  72 SW16G25   30.03R WCI  15
SARATOGA       MOCLDY    27  18  69 SW7       30.09R WCI  19
LARAMIE        FAIR      28  15  58 SW15      30.01R WCI  16
CHEYENNE       FAIR      35  13  40 VRB6      30.00R WCI  30
TORRINGTON     FAIR     N/A N/A N/A W10       29.97R
PINE BLUFFS    FAIR      37  18  44 W15       30.00S WCI  28

$$


USA.gov is the U.S. government's official web portal to all federal, state and local government web resources and services.